IRNSS-1E

Last updated on Aug. 10, 2020, 5:33 a.m. UTC

1 41241U 16003A   20218.57618667 -.00000316  00000-0  00000+0 0  9991
2 41241  29.3007  95.4519 0020188 178.4691 359.7916  1.00279037 16728
UTC
Height (km)
Latitude
Longitude
Inclination
Orbital Period
UTC large
Height (km)
Speed (km/s)
/
Latitude / Longitude
Inclination (degrees)
Orbital Period (minutes)
Azimuth
Elevation
Range (km)
Doppler Factor
iOS Compass Heading
iOS Angle

Next 30 passes for location: Hong Kong

Rise time Rise Azimuth (degrees) Set time Set Azimuth (degrees) Duration Max altitude (degrees)

No matching passes for this satellites